Location: Krakow
(50.0830°N, 19.9170°E)
Time: 00:18:30
(UTC+01:00)

ISS - Visible Passes

Search period start: 13 January 2026 00:00
Search period end: 23 January 2026 00:00
Orbit: 413 x 424 km, 51.6° (Epoch: 12 January)

Date Brightness Start Highest point End Pass type
(mag) Time Alt. Az. Time Alt. Az. Time Alt. Az.
13 Jan -1.7 18:38:20 10° SW 18:39:53 24° SSW 18:39:53 24° SSW visible
14 Jan -2.7 17:50:56 10° SSW 17:53:55 30° SSE 17:54:17 29° SE visible
14 Jan -0.2 19:27:09 10° WSW 19:27:15 11° WSW 19:27:15 11° WSW visible
15 Jan -2.0 17:03:45 10° SSW 17:06:20 21° SE 17:08:37 12° E visible
15 Jan -2.3 18:39:25 10° WSW 18:41:34 37° WSW 18:41:34 37° WSW visible
16 Jan -3.6 17:51:45 10° WSW 17:55:02 60° SSE 17:55:50 44° E visible
16 Jan -0.3 19:28:31 10° W 19:28:47 12° W 19:28:47 12° W visible
17 Jan -3.0 17:04:10 10° SW 17:07:20 42° SSE 17:10:03 13° E visible
17 Jan -2.4 18:40:42 10° W 18:43:00 40° W 18:43:00 40° W visible
18 Jan -3.8 17:52:54 10° WSW 17:56:14 84° NNW 17:57:11 44° ENE visible
18 Jan -0.3 19:29:50 10° WNW 19:30:07 12° WNW 19:30:07 12° WNW visible
19 Jan -3.7 17:05:06 10° WSW 17:08:26 79° SSE 17:11:19 13° ENE visible
19 Jan -2.4 18:41:59 10° W 18:44:16 38° WNW 18:44:16 38° WNW visible
20 Jan -3.7 17:54:07 10° W 17:57:27 66° N 17:58:24 42° ENE visible
20 Jan -0.4 19:31:00 10° WNW 19:31:20 12° WNW 19:31:20 12° WNW visible
21 Jan -3.7 17:06:14 10° W 17:09:34 72° N 17:12:31 13° ENE visible
21 Jan -2.5 18:43:09 10° WNW 18:45:28 40° WNW 18:45:28 40° WNW visible
22 Jan -3.7 17:55:17 10° WNW 17:58:37 67° N 17:59:36 41° ENE visible
22 Jan -0.4 19:32:07 10° WNW 19:32:33 13° WNW 19:32:33 13° WNW visible
